Weather History for Youngstown, OH

Change the Weather History Date:

Tuesday, January 21, 2014

  Actual Average Record
Temperature  
Mean Temperature 8 °F 26 °F  
Max Temperature 18 °F 32 °F 59 °F (1959)
Min Temperature -3 °F 19 °F -20 °F (1985)
Degree Days  
Heating Degree Days 57 39  
Month to date heating degree days 869 825  
Since 1 July heating degree days 3313 3231  
Cooling Degree Days 0 0  
Month to date cooling degree days 0 0  
Year to date cooling degree days 0 0  
Moisture  
Dew Point 2 °F    
Average Humidity 69    
Maximum Humidity 80    
Minimum Humidity 58    
Precipitation  
Precipitation 0.01 in 0.08 in 2.65 in (1959)
Month to date precipitation 2.05 1.79  
Year to date precipitation 2.05 1.79  
Snow  
Snow 0.20 in 0.60 in - ()
Month to date snowfall 14.5 11.4  
Since 1 July snowfall 49.1 30.8  
Snow Depth 1.00 in    
Sea Level Pressure  
Sea Level Pressure 30.02 in    
Wind  
Wind Speed 11 mph (NNE)    
Max Wind Speed 21 mph    
Max Gust Speed 26 mph    
Visibility 9 miles    
Events Snow    
T = Trace of Precipitation, MM = Missing Value Source: NWS Daily Summary

Daily Weather History Graph

Daily Weather History Graph

Search for Another Location

Airport:

Trip Planner

Search our weather history database for the weather conditions in past years. The results will help you decide how hot, cold, wet, or windy it might be!

Date:

Astronomy

Jan. 21, 2014 Rise Set
Actual Time 7:42 AM EST 5:25 PM EST
Civil Twilight 7:12 AM EST 5:55 PM EST
Nautical Twilight 6:39 AM EST 6:29 PM EST
Astronomical Twilight 6:06 AM EST 7:02 PM EST
Moon 11:00 PM EST (1/21) 10:08 AM EST (1/21)
Length of Visible Light 10h 42m
Length of Day
9h 42m
Waning Gibbous, 75% of the Moon is Illuminated
Jan 21
Waning Gibbous
Jan 24
Last Quarter
Jan 30
New
Feb 6
First Quarter
Feb 14
Full

Hourly Weather History & Observations

Time (EST) Temp. Windchill Dew Point Humidity Pressure Visibility Wind Dir Wind Speed Gust Speed Precip Events Conditions
12:51 AM 17.1 °F 6.6 °F 10.9 °F 77% 29.97 in 6.0 mi North 8.1 mph - 0.00 in Snow Light Snow
1:51 AM 16.0 °F 4.4 °F 9.0 °F 74% 29.96 in 9.0 mi NNE 9.2 mph - 0.00 in Snow Light Snow
2:05 AM 15.8 °F 5.1 °F 8.6 °F 73% 29.91 in 9.0 mi NE 8.1 mph - 0.00 in Snow Light Snow
2:51 AM 16.0 °F 2.9 °F 9.0 °F 74% 29.97 in 8.0 mi NNE 11.5 mph - 0.00 in Snow Light Snow
3:18 AM 15.8 °F 2.1 °F 8.6 °F 73% 29.92 in 9.0 mi NE 12.7 mph - 0.00 in Snow Light Snow
3:51 AM 15.1 °F 1.8 °F 7.0 °F 70% 29.96 in 9.0 mi NNE 11.5 mph - 0.00 in Snow Light Snow
4:10 AM 15.8 °F 2.7 °F 6.8 °F 68% 29.91 in 2.5 mi NNE 11.5 mph - 0.00 in Snow Light Snow
4:51 AM 14.0 °F -0.2 °F 8.1 °F 77% 29.96 in 2.0 mi NNE 12.7 mph - 0.00 in Snow Light Snow
5:17 AM 12.2 °F -3.7 °F 8.6 °F 85% 29.88 in 3.0 mi NNE 15.0 mph - 0.00 in Snow Light Snow
5:51 AM 12.9 °F 0.7 °F 6.1 °F 74% 29.96 in 8.0 mi NNE 9.2 mph - 0.00 in Snow Light Snow
6:51 AM 12.0 °F -1.3 °F 6.1 °F 77% 29.99 in 9.0 mi North 10.4 mph - N/A Snow Light Snow
7:51 AM 10.9 °F -2.6 °F 3.0 °F 70% 30.01 in 10.0 mi NNE 10.4 mph - 0.00 in   Overcast
8:51 AM 10.9 °F -3.4 °F 1.0 °F 64% 30.01 in 10.0 mi NNE 11.5 mph - N/A   Overcast
9:51 AM 12.0 °F -3.4 °F 3.0 °F 67% 30.02 in 10.0 mi NNE 13.8 mph - N/A   Mostly Cloudy
10:51 AM 12.0 °F -4.5 °F 1.9 °F 64% 30.04 in 10.0 mi NNE 16.1 mph - N/A   Mostly Cloudy
11:51 AM 12.0 °F -5.6 °F 1.0 °F 61% 30.03 in 10.0 mi NNE 18.4 mph 24.2 mph N/A   Mostly Cloudy
12:17 PM 12.2 °F -5.3 °F 1.4 °F 62% 29.96 in 10.0 mi North 18.4 mph - N/A   Overcast
12:51 PM 12.0 °F -6.0 °F -0.0 °F 59% 30.03 in 10.0 mi NNE 19.6 mph 24.2 mph N/A   Overcast
1:29 PM 12.2 °F -3.1 °F -0.4 °F 57% 29.95 in 10.0 mi NNE 13.8 mph 23.0 mph N/A   Mostly Cloudy
1:51 PM 12.9 °F -2.2 °F -0.0 °F 56% 30.01 in 10.0 mi North 13.8 mph 25.3 mph N/A   Mostly Cloudy
2:51 PM 12.0 °F -4.5 °F -0.9 °F 56% 30.03 in 10.0 mi North 16.1 mph 23.0 mph N/A   Mostly Cloudy
3:41 PM 10.4 °F -6.6 °F -2.2 °F 57% 29.97 in 10.0 mi NNE 16.1 mph - N/A   Mostly Cloudy
3:51 PM 9.0 °F -7.3 °F -0.9 °F 64% 30.04 in 10.0 mi North 13.8 mph - N/A   Mostly Cloudy
4:51 PM 8.1 °F -6.2 °F -2.9 °F 61% 30.08 in 10.0 mi North 10.4 mph - N/A   Scattered Clouds
5:51 PM 6.1 °F -10.2 °F -4.0 °F 63% 30.10 in 10.0 mi North 12.7 mph - N/A   Scattered Clouds
6:51 PM 3.9 °F -11.3 °F -6.0 °F 64% 30.12 in 10.0 mi North 10.4 mph - N/A   Partly Cloudy
7:51 PM 3.0 °F -9.3 °F -6.0 °F 66% 30.13 in 10.0 mi North 6.9 mph - N/A   Clear
8:51 PM 1.9 °F -9.2 °F -7.1 °F 66% 30.13 in 10.0 mi North 5.8 mph - N/A   Partly Cloudy
9:51 PM -0.0 °F -7.9 °F -6.0 °F 76% 30.14 in 10.0 mi NW 3.5 mph - N/A   Clear
10:51 PM -0.9 °F -11.0 °F -7.1 °F 75% 30.14 in 10.0 mi NNW 4.6 mph - N/A   Clear
11:51 PM -2.9 °F -13.3 °F -8.0 °F 79% 30.14 in 10.0 mi NNW 4.6 mph - N/A   Partly Cloudy